Location: Unspecified
(0.0000°N, 0.0000°E)
Time: 17:50:43
(UTC+00:00)

STARLINK 1062 - Pass Details

Date: 18 January 2020
Orbit: 548 x 551 km, 53.0° (Epoch: 17 January)

Event Time Altitude Azimuth Distance (km) Brightness Sun altitude
Rises 05:23:11 0° 188° (S) 2,714 7.3 -11.0°
Reaches altitude 10° 05:26:00 10° 168° (SSE) 1,818 6.7 -10.3°
Maximum altitude 05:28:49 18° 125° (SE) 1,390 6.9 -9.7°
Drops below altitude 10° 05:31:38 10° 81° (E) 1,812 7.3 -9.0°
Sets 05:34:26 0° 62° (ENE) 2,702 7.8 -8.4°
